STARLINK-31363, 59782

Orbit data source: Space-Track

STARLINK-31363, 59782 is a payload satellite owned by SpaceX/Seattle (US) in LEO that was launched on Sat, 18 May 2024 UTC via an FALCON 9 launch vehicle from the Air Force Eastern Test Range (AFETR). Payload-class satellites include a variety of spacecraft equipped with specific instruments for various scientific and technological missions. These include communications satellites like Starlink; space stations such as the ISS; scientific satellites like the Hubble; Earth observation satellites from companies like Planet Labs, Umbra, and HawkEye 360; GPS; miniature CubeSats for education and research; and military/defense satellites.

Loading next visibility...
Identifier
59782, 2024-093A
Orbit
LEO
Last TLE update
1 day ago
Origin
Manufacturer
SpaceX/Seattle
Mission
Operational spacecraft
Bus & Motor
STARLINK V2M, Unknown motor
Mass
730 kg wet, ~700 kg dry
Launch date (UTC)
2024-05-18 (1 year ago)
Launch vehicle
FALCON 9
Launch site
Air Force Eastern Test Range (AFETR)
Object type
Payload
Rocket body
Debris
Shape & HBR
Unknown
Radar Cross Section
Large (>1 m²)

Expand to show TLE details & history

TLE from 1 day ago
0 STARLINK-31363
1 59782U 24093A   25181.37447162  .00001938  00000-0  79934-4 0  9997
2 59782  43.0011 190.6284 0001221 272.7136  87.3576 15.27579361 64143
Epoch: 2025-06-30T08:59Z
TLE epoch observation values (Epoch: 2025-06-30T08:59:14.347Z)
Latitude
-0.00003°
Longitude
137.1334°
Altitude
482.788 km
Speed
7.626 km/s
True Right ascension
12h 42m 30s
True Declination
0° 00' 00"
Sunlit
Object was in daylight at epoch
Visualization orbit readout
Latitude
43.05089°
Longitude
-133.88425°
Altitude
486.998 km
Speed
7.627 km/s
Apparent Right ascension
14h 29m 24s
Apparent Declination
7° 41' 17"
Sunlit
Object is in full shadow
Visualization observer readout
Local Sidereal Time
22:08:40
Azimuth
292.33° WNW
Elevation
-13.482°
Doppler factor
1
Orbital elements
Apogee altitude
485.834 km
Perigee altitude
484.158 km
Semi-major axis
6,863.133 km
Eccentricity
0.00012
Inclination
43.0011°
RAAN
190.6284°
Arg. of periapsis
272.7136°
True anomaly
Unknown
Mean anomaly
87.3576°
Eccentric anomaly
Unknown
Mean motion
3.81733 °/min
Orbital period
94.31 mins
BSTAR
0.000079934
Loading maneuver chart data...
Loading SW <> Apogee altitude chart data...
Loading historical data...
Loading historical data...
Loading historical data...
Loading historical data...
Loading historical data...
Loading historical data...
Loading historical data...

STARLINK-31363 Visibility forecast

Observer location: undefined°, undefined°

Span
Click to sort rows by Start time (UTC) header in descending order
Start Az.
Max El. time (UTC)
Max El. Az.
Max El.
End time (UTC)
End Az.
5 mins2025-07-02 03:35:12.602Z209.976° SW2025-07-02 03:37:12.602Z144.877° SSE33.965°2025-07-02 03:40:12.602Z82.347° E
5 mins2025-07-02 05:14:12.602Z275.919° WNW2025-07-02 05:16:12.602Z13.201° NNE41.164°2025-07-02 05:19:12.602Z69.736° E
5 mins2025-07-02 06:53:12.602Z297.359° NW2025-07-02 06:55:12.602Z9.402° NNE39.408°2025-07-02 06:58:12.602Z83.473° E
5 mins2025-07-02 08:32:12.602Z277.086° WNW2025-07-02 08:34:12.602Z202.222° SSW41.297°2025-07-02 08:37:12.602Z125.472° SE
|